When you browse on this site, cookies collect data to enhance your experience and personalize the content and advertising you see.
Visit our Privacy Policy to learn more. By continuing to use the site, you agree to this use of cookies and data.
  • în România
  • Lista ţărilor
  • Pe 7 zile
  • Temperatura apei
  • Meteo pe hartă
  • Widget-uri
  • user-avatar
    Intrare

    Meteo pe oră la Saintes

    Astăzi, 22 August, Joi

    Timp Temperatura Precipitaţii Vânt Presiune Umiditate
    00:00 +17°C° 0 mm 3 m/s 766 mmHg 59%
    01:00 +17°C° 0 mm 3 m/s 766 mmHg 62%
    02:00 +16°C° 0 mm 3 m/s 765 mmHg 64%
    03:00 +16°C° 0 mm 3 m/s 765 mmHg 67%
    04:00 +16°C° 0 mm 3 m/s 765 mmHg 69%
    05:00 +14°C° 0 mm 3 m/s 765 mmHg 71%
    06:00 +14°C° 0 mm 3 m/s 766 mmHg 73%
    07:00 +18°C° 0 mm 3 m/s 766 mmHg 66%
    08:00 +21°C° 0 mm 4 m/s 766 mmHg 59%
    09:00 +23°C° 0 mm 4 m/s 766 mmHg 52%
    10:00 +26°C° 0 mm 4 m/s 766 mmHg 47%
    11:00 +27°C° 0 mm 4 m/s 766 mmHg 42%
    12:00 +29°C° 0 mm 5 m/s 766 mmHg 36%
    13:00 +30°C° 0 mm 5 m/s 765 mmHg 35%
    14:00 +30°C° 0 mm 4 m/s 765 mmHg 33%
    15:00 +32°C° 0 mm 4 m/s 764 mmHg 32%
    16:00 +30°C° 0 mm 4 m/s 764 mmHg 36%
    17:00 +28°C° 0 mm 4 m/s 764 mmHg 39%
    18:00 +27°C° 0 mm 3 m/s 764 mmHg 43%
    19:00 +26°C° 0 mm 4 m/s 764 mmHg 44%
    20:00 +23°C° 0 mm 4 m/s 764 mmHg 45%
    21:00 +22°C° 0 mm 4 m/s 764 mmHg 46%
    22:00 +21°C° 0 mm 4 m/s 764 mmHg 48%
    23:00 +20°C° 0 mm 4 m/s 764 mmHg 50%

    Mâine, 23 August, Vineri

    Timp Temperatura Precipitaţii Vânt Presiune Umiditate
    00:00 +19°C° 0 mm 4 m/s 764 mmHg 52%
    01:00 +19°C° 0 mm 4 m/s 764 mmHg 55%
    02:00 +18°C° 0 mm 4 m/s 764 mmHg 57%
    03:00 +17°C° 0 mm 4 m/s 763 mmHg 60%
    04:00 +17°C° 0 mm 4 m/s 763 mmHg 61%
    05:00 +17°C° 0 mm 4 m/s 763 mmHg 63%
    06:00 +17°C° 0 mm 3 m/s 763 mmHg 64%
    07:00 +20°C° 0 mm 3 m/s 763 mmHg 58%
    08:00 +22°C° 0 mm 3 m/s 763 mmHg 53%
    09:00 +26°C° 0 mm 3 m/s 764 mmHg 47%
    10:00 +28°C° 0 mm 3 m/s 763 mmHg 43%
    11:00 +30°C° 0 mm 2 m/s 763 mmHg 38%
    12:00 +31°C° 0 mm 2 m/s 762 mmHg 34%
    13:00 +32°C° 0 mm 2 m/s 762 mmHg 33%
    14:00 +34°C° 0 mm 2 m/s 762 mmHg 31%
    15:00 +34°C° 0 mm 2 m/s 761 mmHg 30%
    16:00 +32°C° 0 mm 2 m/s 761 mmHg 33%
    17:00 +31°C° 0 mm 2 m/s 761 mmHg 37%
    18:00 +30°C° 0 mm 2 m/s 760 mmHg 40%
    19:00 +28°C° 0 mm 2 m/s 761 mmHg 41%
    20:00 +26°C° 0 mm 3 m/s 761 mmHg 41%
    21:00 +25°C° 0 mm 3 m/s 761 mmHg 42%
    22:00 +24°C° 0 mm 3 m/s 761 mmHg 43%
    23:00 +22°C° 0 mm 3 m/s 760 mmHg 44%

    Poimâine, 24 August, Sâmbătă

    Timp Temperatura Precipitaţii Vânt Presiune Umiditate
    00:00 +21°C° 0 mm 3 m/s 760 mmHg 45%
    01:00 +21°C° 0 mm 2 m/s 760 mmHg 47%
    02:00 +20°C° 0 mm 2 m/s 760 mmHg 49%
    03:00 +20°C° 0 mm 2 m/s 760 mmHg 51%
    04:00 +20°C° 0 mm 2 m/s 760 mmHg 53%
    05:00 +20°C° 0 mm 2 m/s 760 mmHg 56%
    06:00 +20°C° 0 mm 2 m/s 760 mmHg 59%
    07:00 +24°C° 0 mm 2 m/s 760 mmHg 54%
    08:00 +26°C° 0 mm 2 m/s 760 mmHg 49%
    09:00 +29°C° 0 mm 2 m/s 760 mmHg 45%
    10:00 +30°C° 0 mm 2 m/s 760 mmHg 40%
    11:00 +32°C° 0 mm 2 m/s 760 mmHg 36%
    12:00 +34°C° 0 mm 2 m/s 760 mmHg 32%
    13:00 +35°C° 0 mm 2 m/s 759 mmHg 30%
    14:00 +35°C° 0 mm 2 m/s 759 mmHg 28%
    15:00 +35°C° 0 mm 1 m/s 759 mmHg 26%
    16:00 +34°C° 0 mm 2 m/s 759 mmHg 30%
    17:00 +31°C° 0 mm 2 m/s 759 mmHg 35%
    18:00 +30°C° 0 mm 2 m/s 758 mmHg 40%
    19:00 +28°C° 0 mm 2 m/s 759 mmHg 44%
    20:00 +26°C° 0 mm 2 m/s 759 mmHg 48%
    21:00 +24°C° 0 mm 2 m/s 759 mmHg 52%
    22:00 +23°C° 0 mm 2 m/s 759 mmHg 54%
    23:00 +23°C° 0 mm 2 m/s 759 mmHg 55%

    25 August, Duminică

    Timp Temperatura Precipitaţii Vânt Presiune Umiditate
    00:00 +22°C° 0 mm 1 m/s 759 mmHg 57%
    01:00 +22°C° 0 mm 1 m/s 759 mmHg 59%
    02:00 +21°C° 0 mm 1 m/s 759 mmHg 62%
    03:00 +21°C° 0 mm 1 m/s 759 mmHg 65%
    04:00 +21°C° 0 mm 1 m/s 759 mmHg 66%
    05:00 +21°C° 0 mm 1 m/s 759 mmHg 68%
    06:00 +21°C° 0 mm 1 m/s 759 mmHg 70%
    07:00 +23°C° 0 mm 1 m/s 760 mmHg 65%
    08:00 +24°C° 0 mm 1 m/s 760 mmHg 60%
    09:00 +26°C° 0 mm 1 m/s 761 mmHg 55%
    10:00 +27°C° 0 mm 2 m/s 761 mmHg 51%
    11:00 +28°C° 0 mm 2 m/s 761 mmHg 48%
    12:00 +29°C° 0 mm 2 m/s 761 mmHg 44%
    13:00 +28°C° 0 mm 2 m/s 760 mmHg 46%
    14:00 +28°C° 0 mm 3 m/s 760 mmHg 49%
    15:00 +27°C° 0 mm 3 m/s 760 mmHg 51%
    16:00 +26°C° 0 mm 4 m/s 760 mmHg 54%
    17:00 +26°C° 0 mm 4 m/s 760 mmHg 58%
    18:00 +25°C° 0 mm 4 m/s 760 mmHg 61%
    19:00 +24°C° 0 mm 3 m/s 760 mmHg 64%
    20:00 +22°C° 0 mm 3 m/s 761 mmHg 68%
    21:00 +21°C° 0 mm 3 m/s 761 mmHg 71%
    22:00 +21°C° 0 mm 3 m/s 761 mmHg 68%
    23:00 +21°C° 0 mm 2 m/s 761 mmHg 65%

    26 August, Luni

    Timp Temperatura Precipitaţii Vânt Presiune Umiditate
    00:00 +21°C° 0 mm 2 m/s 761 mmHg 61%
    01:00 +21°C° 0 mm 2 m/s 761 mmHg 60%
    02:00 +20°C° 0 mm 2 m/s 761 mmHg 59%
    03:00 +20°C° 0 mm 2 m/s 760 mmHg 58%
    04:00 +20°C° 0 mm 2 m/s 760 mmHg 61%
    05:00 +20°C° 0 mm 3 m/s 761 mmHg 64%
    06:00 +20°C° 0 mm 3 m/s 761 mmHg 67%
    07:00 +22°C° 0 mm 3 m/s 761 mmHg 61%
    08:00 +26°C° 0 mm 3 m/s 761 mmHg 54%
    09:00 +28°C° 0 mm 3 m/s 761 mmHg 48%
    10:00 +30°C° 0 mm 3 m/s 761 mmHg 43%
    11:00 +33°C° 0 mm 3 m/s 761 mmHg 38%
    12:00 +35°C° 0 mm 3 m/s 760 mmHg 32%
    13:00 +35°C° 0 mm 3 m/s 760 mmHg 31%
    14:00 +35°C° 0 mm 3 m/s 760 mmHg 30%
    15:00 +36°C° 0 mm 3 m/s 759 mmHg 29%
    16:00 +34°C° 0 mm 2 m/s 759 mmHg 34%
    17:00 +32°C° 0 mm 2 m/s 759 mmHg 38%
    18:00 +31°C° 0 mm 2 m/s 758 mmHg 42%
    19:00 +29°C° 0 mm 2 m/s 759 mmHg 44%
    20:00 +28°C° 0 mm 2 m/s 759 mmHg 46%
    21:00 +26°C° 0 mm 2 m/s 759 mmHg 48%
    22:00 +26°C° 0 mm 2 m/s 759 mmHg 48%
    23:00 +26°C° 0 mm 3 m/s 759 mmHg 47%

    27 August, Marţi

    Timp Temperatura Precipitaţii Vânt Presiune Umiditate
    00:00 +25°C° 0 mm 3 m/s 758 mmHg 47%
    01:00 +24°C° 0 mm 3 m/s 758 mmHg 52%
    02:00 +23°C° 0 mm 2 m/s 758 mmHg 56%
    03:00 +23°C° 0 mm 2 m/s 757 mmHg 61%
    04:00 +23°C° 0 mm 2 m/s 758 mmHg 61%
    05:00 +21°C° 0 mm 2 m/s 758 mmHg 62%
    06:00 +21°C° 0 mm 2 m/s 758 mmHg 63%
    07:00 +24°C° 0 mm 2 m/s 758 mmHg 57%
    08:00 +26°C° 0 mm 2 m/s 758 mmHg 51%
    09:00 +28°C° 0 mm 2 m/s 758 mmHg 46%
    10:00 +29°C° 0 mm 2 m/s 758 mmHg 43%
    11:00 +31°C° 0 mm 3 m/s 758 mmHg 40%
    12:00 +33°C° 0 mm 3 m/s 758 mmHg 37%
    13:00 +33°C° 0 mm 4 m/s 758 mmHg 40%
    14:00 +32°C° 0 mm 5 m/s 758 mmHg 43%
    15:00 +30°C° 0 mm 6 m/s 757 mmHg 45%
    16:00 +29°C° 0.1 mm 5 m/s 757 mmHg 50%
    17:00 +27°C° 0.1 mm 4 m/s 757 mmHg 56%
    18:00 +25°C° 0.1 mm 2 m/s 757 mmHg 61%
    19:00 +24°C° 0 mm 2 m/s 758 mmHg 64%
    20:00 +23°C° 0 mm 1 m/s 758 mmHg 66%
    21:00 +22°C° 0 mm 1 m/s 758 mmHg 69%
    22:00 +22°C° 0 mm 1 m/s 758 mmHg 69%
    23:00 +22°C° 0 mm 1 m/s 758 mmHg 69%
    Arată mai mult